Regional Weather Roundup
Issued by NWS

Home | Current Version | Previous Version | Graphics & Text | Print | Product List | Glossary On
Versions: 1 2 3 4 5 6 7 8 9 10 11 12 13 14 15 16 17 18 19 20 21 22 23 24 25 26 27 28 29 30 31 32 33 34 35 36 37 38 39 40 41 42 43 44 45 46 47 48 49 50
000
ASUS45 KTFX 241210
RWRMT
MONTANA REGIONAL WEATHER ROUNDUP
NATIONAL WEATHER SERVICE GREAT FALLS MT
600 AM MDT WED MAY 24 2017

NOTE: "FAIR" INDICATES FEW OR NO CLOUDS BELOW 12000 FEET WITH NO
SIGNIFICANT WEATHER AND/OR OBSTRUCTIONS TO VISIBILITY.

MTZ001>007-043-241300-
WEST OF THE DIVIDE

CITY           SKY/WX    TMP DP  RH WIND       PRES   REMARKS
KALISPELL      PTCLDY    59  34  39 SW22G29   29.49S
MISSOULA       MOCLDY    61  33  35 W18G36    29.64R
BUTTE          CLOUDY    61  38  42 W8        29.65F
MULLAN PASS    PTCLDY    38  26  62 VRB6G22   29.70F
ANACONDA         N/A     59  37  44 S7        29.61F
DEER LODGE       N/A     61  41  48 S6        29.61F
EUREKA           N/A     61  30  31 SW18      29.45R
HAMILTON         N/A     64  27  24 S14G21    29.64F
RONAN            N/A     59  30  33 W21       29.68R
$$

MTZ008-052>055-241300-
SOUTHWEST MONTANA

CITY           SKY/WX    TMP DP  RH WIND       PRES   REMARKS
BOZEMAN        PTCLDY    58  40  51 S13       29.59F
DILLON         CLEAR     51  37  58 S9        29.67F
W YELLOWSTONE  CLOUDY    48  32  53 SW7       29.85F
ENNIS          CLOUDY    57  37  47 S20       29.72F
THREE FORKS      N/A     62  38  41 SW13      29.62F
$$

MTZ009-010-012-014-046-048-049-054-241300-
EAST SLOPES AND CENTRAL MONTANA

CITY           SKY/WX    TMP DP  RH WIND       PRES   REMARKS
CUT BANK       CLEAR     60  26  27 SW30G41   29.36S
GREAT FALLS    CLEAR     63  41  44 SW15G31   29.43F
MALMSTROM AFB  CLEAR     64  42  45 SW20G28   29.42F
HELENA         MOCLDY    57  46  66 N8        29.51F
CHOTEAU          N/A     63  27  25 SW16G29   29.41F
$$

MTZ011-013-016-021-045-047-050-051-241300-
NORTH CENTRAL MONTANA

CITY           SKY/WX    TMP DP  RH WIND       PRES   REMARKS
HAVRE          CLEAR     54  41  61 SW15      29.32F
LEWISTOWN      CLEAR     63  39  41 SW24      29.49F
N BAR RANCH      N/A     57  39  51 S12       29.54F
CHINOOK          N/A     54  43  66 E6        29.33F
$$

MTZ017>020-022>027-061-062-241300-
NORTHEAST MONTANA

CITY           SKY/WX    TMP DP  RH WIND       PRES   REMARKS
GLASGOW        CLEAR     55  36  48 SE21G29   29.44F
JORDAN           N/A     53  36  52 E6        29.48F
SIDNEY         CLOUDY    52  35  52 S17G25    29.62
WOLF POINT     MOCLDY    56  35  45 CALM      29.51F
MALTA          CLEAR     57  37  47 CALM      29.38F
$$

MTZ028>42-056>058-241300-
SOUTHCENTRAL AND SOUTHEAST MONTANA

CITY           SKY/WX    TMP DP  RH WIND       PRES   REMARKS
BAKER          CLOUDY    44  35  70 SE22      29.66F
BILLINGS       PTCLDY    61  31  32 SW16      29.56F
LIVINGSTON     CLEAR     63  36  36 SW33G44   29.58F
MILES CITY     PTCLDY    52  35  52 SE20      29.56F
BIG TIMBER     CLEAR     59  37  44 W7        29.61F
FORSYTH          N/A     55  37  50 SE5       29.53F
LAUREL           N/A     58  30  34 SW7       29.61R
ROUNDUP          N/A     59  33  37 S10       29.49F
$$

REGIONAL REPORTS...DAKOTAS

CITY           SKY/WX    TMP DP  RH WIND       PRES   REMARKS
WILLISTON      CLOUDY    53  37  54 SE21G28   29.64F
MINOT          CLEAR     52  38  58 S14G22    29.74F
DICKINSON      CLEAR     44  34  67 S18       29.70F
BEACH            N/A     45  36  70 SE15      29.70F
TIOGA            N/A     50  36  57 S28       29.68F
WATFORD CITY     N/A     50  36  57 S18G26    29.67F
BISMARCK       CLOUDY    38  35  89 CALM      29.81F
GRAND FORKS    MOSUNNY   44  42  93 SE3       29.84F
FARGO          SUNNY     43  42  97 CALM      29.84S
BUFFALO SD       N/A     42  37  82 SE15      29.65F
RAPID CITY     CLEAR     38  34  85 S9        29.78F WCI  31
$$

REGIONAL REPORTS...WYOMING/IDAHO/WASHINGTON

CITY           SKY/WX    TMP DP  RH WIND       PRES   REMARKS
GILLETTE       CLOUDY    45  37  73 S14       29.69F
SHERIDAN       CLEAR     39  36  89 CALM      29.62F
BUFFALO WY     CLEAR     51  37  58 SW12      29.68F
CODY           CLEAR     64  33  31 W10G20    29.71F
YELLOWSTONE LA   N/A     30  29  96 CALM      29.95F
IDAHO FALLS    CLEAR     53  43  68 SW12      29.82F
SALMON         CLOUDY    46  41  81 CALM      29.65F
BOISE          CLEAR     61  45  55 NW7       29.77R
SPOKANE        PTCLDY    46  29  51 W17       29.73R
$$

REGIONAL REPORTS...ALBERTA

CITY           SKY/WX    TMP DP  RH WIND       PRES   REMARKS
EDMONTON       PTCLDY    55  45  67 W13G22    29.09R
CALGARY        LGT RAIN  55  37  50 N15G26    29.24R
LETHBRIDGE     PTCLDY    63  21  20 SW37G48   29.21S
MEDICINE HAT   CLEAR     66  37  34 S17G23    29.16F
WATERTON GATE    N/A     55  23  28 W22G36      N/A
CARDSTON         N/A     59  25  27 SW10G18     N/A
MILK RIVER       N/A     59  36  41 SW16G23     N/A
$$

REGIONAL REPORTS...SASKATCHEWAN

CITY           SKY/WX    TMP DP  RH WIND       PRES   REMARKS
SWIFT CURRENT  CLEAR     54  34  47 S21G32    29.28F
REGINA         MOCLDY    55  34  44 SE24G33   29.47F
SASKATOON      MOCLDY    61  37  41 S24G37    29.23F
CYPRESS HILLS    N/A     54  36  50 S8G17       N/A
VAL MARIE        N/A     52  36  54 S17         N/A
ROCKGLEN         N/A     50  34  53 S23G29      N/A
ASSINIBOIA       N/A     59  46  63 SW14        N/A
$$



USA.gov is the U.S. government's official web portal to all federal, state and local government web resources and services.